RH
8 9 9 10 10 10 9 8 8 8 13 29 49 54 57 59 57 58 64 69 67 54 41 37 16 20 17 14 13 13 14 14 15
8 7 6 6 6 6 7 8 9 9 9 9 10 14 37 42 43 55 60 59 69 71 67 50 37 23 14 20 15 14 13 14 15
10 10 10 11 11 11 10 10 10 10 9 8 9 9 10 12 24 36 58 64 62 66 72 74 68 45 31 14 20 15 14 14 14
11 11 9 5 4 4 4 5 5 6 8 11 12 10 9 9 10 11 21 55 58 59 64 73 77 76 61 36 14 22 16 14 14
6 4 3 3 4 5 6 6 6 6 6 6 6 8 11 11 10 9 9 10 15 25 53 66 73 81 80 75 40 14 25 16 15
3 3 4 5 6 6 6 7 8 10 10 10 10 9 9 9 10 10 11 10 10 11 18 56 65 74 84 84 82 38 14 24 16
4 5 5 6 7 7 8 11 12 11 10 9 9 9 8 8 9 9 9 9 10 11 27 28 45 62 71 85 88 86 32 14 20
5 6 7 8 8 10 12 12 9 9 9 9 9 9 9 10 10 10 10 11 11 11 11 32 49 47 64 72 88 88 88 22 16
7 8 9 9 10 12 12 12 10 9 8 7 7 8 9 9 10 11 11 11 11 11 11 12 35 62 71 79 81 94 88 84 20
9 10 10 11 11 11 12 12 11 10 9 9 9 9 10 11 12 12 15 18 20 23 24 24 19 45 82 93 90 96 98 86 66
11 11 11 11 11 11 11 11 11 10 10 10 10 10 11 12 14 19 23 28 28 26 22 22 29 27 43 94 99 95 100 96 81
11 11 11 10 10 9 9 8 8 8 9 9 10 11 12 15 20 28 30 25 35 40 35 35 31 28 30 31 94 98 95 100 92
6 7 8 8 9 10 11 11 10 10 10 10 11 12 14 18 24 36 31 42 41 36 37 39 34 33 34 37 72 99 98 98 98
8 9 9 9 10 10 10 11 10 11 12 11 11 13 15 20 30 41 35 45 29 29 34 48 53 48 47 43 62 93 100 92 96
10 8 9 9 10 12 15 20 21 20 21 16 12 15 18 23 38 36 51 64 47 47 41 59 66 69 63 48 66 75 94 100 100
9 8 10 12 12 19 35 43 47 46 45 38 16 16 22 24 42 39 42 68 64 38 44 69 63 66 72 56 70 99 86 99 92
9 10 12 13 13 17 31 37 43 47 43 44 30 13 22 21 36 45 78 69 54 64 59 65 89 80 81 80 65 73 98 98 99
23 24 25 21 16 15 18 26 32 42 43 43 35 16 13 19 28 51 70 72 55 71 81 77 76 73 72 68 54 90 85 94 98
24 20 19 22 26 20 16 18 24 36 42 43 38 19 14 15 22 36 56 67 64 53 88 94 93 60 77 94 95 90 78 92 94
39 37 21 17 18 24 24 25 29 33 38 41 42 25 16 16 20 24 36 61 67 67 65 95 100 98 100 98 87 52 59 86 91
Wind_Speed
21 21 21 21 21 21 22 22 22 23 23 23 22 21 21 22 21 21 20 19 19 18 17 16 17 19 21 20 20 21 20 20 19
19 19 19 19 19 20 21 22 23 23 24 25 26 26 24 25 25 23 23 23 23 22 21 21 20 19 21 23 22 22 22 22 21
14 14 13 13 13 14 15 17 18 20 22 24 26 27 28 28 28 27 25 27 26 25 25 24 23 23 21 22 24 24 24 23 23
10 10 9 10 12 13 14 15 15 17 18 20 22 25 27 29 31 31 30 29 29 29 29 28 27 26 25 24 24 26 25 25 24
10 11 13 13 13 14 15 15 15 16 18 19 20 22 24 27 29 31 32 34 34 35 33 32 31 30 29 27 26 26 27 26 26
13 13 13 14 15 15 15 16 17 18 20 21 22 23 25 27 28 31 33 35 36 37 36 35 36 34 33 31 29 28 27 28 27
13 13 14 15 17 17 17 18 20 21 21 21 23 25 27 29 31 32 34 35 38 39 39 39 40 39 38 35 33 31 29 29 29
14 14 15 17 17 17 19 20 19 19 20 22 24 26 28 30 32 34 35 37 39 42 43 42 43 44 42 41 37 35 33 29 30
14 14 16 17 18 19 19 20 20 21 22 24 26 28 29 31 32 34 35 38 41 44 47 49 47 48 47 44 42 38 36 33 30
15 16 17 18 19 20 20 21 22 22 24 26 27 28 28 29 32 33 34 38 43 46 48 51 52 52 48 47 44 41 39 37 33
17 18 19 20 21 21 21 21 23 24 25 27 28 27 28 29 31 33 35 38 43 46 48 49 50 51 55 44 44 43 40 39 37
18 19 20 20 21 22 23 23 24 25 26 28 28 27 28 29 31 34 36 36 35 37 40 42 43 48 53 57 49 45 43 40 40
18 19 19 20 21 22 22 23 24 24 24 26 26 27 27 29 32 34 32 31 30 31 30 32 35 40 50 54 66 41 46 45 41
16 18 19 20 21 22 22 24 24 23 22 24 25 26 26 28 31 32 29 28 28 27 26 24 25 33 43 49 52 55 45 55 45
18 19 21 21 22 23 23 25 27 27 25 23 26 26 25 26 29 26 24 24 25 24 20 16 16 22 31 41 44 45 41 30 42
20 21 21 22 23 23 22 23 25 27 25 23 21 24 23 24 25 23 21 22 21 18 14 6 6 7 17 25 30 22 38 32 52
21 22 23 25 25 24 24 24 24 25 25 23 21 16 17 21 21 20 17 17 13 15 11 4 2 1 7 21 14 12 25 8 14
23 24 25 26 26 25 26 26 27 25 26 24 22 21 17 16 16 17 16 12 8 9 7 3 6 4 11 14 15 8 15 13 15
23 24 25 25 25 25 25 28 29 27 24 23 23 22 22 20 13 17 16 13 6 6 5 1 3 10 10 11 8 9 10 13 14
25 26 26 25 25 25 26 27 28 27 25 23 21 21 22 22 20 13 15 16 11 8 7 4 5 8 6 10 8 7 11 11 10
Wind_Direction
288 285 282 280 277 275 275 273 271 270 269 269 271 274 273 274 274 273 272 270 269 267 265 263 262 256 256 250 246 246 242 241 240
288 284 282 281 279 278 276 276 275 273 272 271 272 269 267 267 268 270 271 269 269 267 266 264 261 257 255 254 251 245 244 243 243
292 288 287 286 286 285 283 282 281 278 275 272 271 271 270 269 268 268 265 267 264 265 264 263 265 264 260 253 250 250 245 242 243
296 294 292 292 292 289 288 288 286 283 279 276 274 272 271 271 271 269 263 260 263 264 263 262 260 261 263 261 254 247 248 245 241
299 298 296 296 295 292 292 290 289 289 289 286 283 279 276 273 272 271 270 269 265 263 261 260 258 257 258 259 258 253 245 244 243
298 298 297 297 296 297 293 292 295 296 294 291 288 285 281 278 276 274 272 271 270 267 260 260 260 257 254 252 254 252 248 243 241
299 298 297 297 296 296 297 299 298 296 294 293 291 289 287 285 282 278 276 273 270 268 265 259 257 256 254 251 249 247 246 243 239
296 294 294 296 297 297 300 300 300 298 297 296 294 294 293 291 288 285 282 277 272 267 263 257 254 252 251 248 246 245 243 240 240
294 295 299 301 302 302 302 304 306 308 305 301 301 299 298 295 290 286 281 277 273 268 263 256 248 248 246 245 243 240 240 240 236
301 305 306 306 307 305 306 309 310 310 308 306 305 305 304 300 296 293 288 281 274 270 265 260 251 242 241 241 240 237 238 237 237
307 308 309 309 309 310 307 309 309 309 308 307 306 310 309 308 306 304 297 288 283 279 273 266 258 248 241 232 238 235 236 237 235
307 309 311 310 311 310 309 312 311 311 311 310 313 313 312 311 313 312 306 300 292 285 278 271 260 246 237 232 231 233 229 235 234
310 311 311 311 314 312 315 315 315 316 316 312 314 313 316 321 323 319 314 312 309 302 289 278 261 243 233 227 234 227 224 229 232
315 315 315 315 315 315 318 318 315 315 319 317 316 318 322 326 328 326 326 326 320 306 301 287 262 241 232 228 226 221 225 225 225
313 314 314 314 315 317 319 318 315 315 317 319 320 323 326 328 334 334 329 335 334 326 316 297 267 244 232 227 223 235 233 224 230
310 311 312 313 314 317 321 321 320 319 323 320 320 323 324 331 337 338 341 351 350 352 351 350 320 262 243 219 224 265 250 257 209
308 308 309 308 310 312 315 320 320 319 319 322 320 316 321 330 338 335 353 2 7 5 4 27 90 138 212 201 273 270 246 192 182
311 311 310 306 306 308 308 313 318 318 318 322 323 321 323 328 334 336 347 0 1 7 1 45 126 174 179 216 254 276 293 273 242
324 321 316 311 308 307 304 307 312 314 315 320 320 320 322 325 346 336 328 335 351 318 13 293 201 212 216 243 239 227 232 227 230
316 323 320 316 314 311 307 307 308 308 310 314 313 313 315 318 324 337 327 320 307 311 262 189 266 240 244 239 282 272 249 230 217